PACCTY Weather Reports


time (UTC)temp
C
wind
direction
speed
KPH
gust
KPH
rain 1hr
cm
rain 24hr
cm
rain mn
cm
humidity
%
barometer
mb
20260505122517 12 0 0.0 0.0 0.00 0.00 0.00 93 1013.1
20260505122017 12 0 0.0 0.0 0.00 0.00 0.00 93 1013.1
20260505121517 12 0 0.0 0.0 0.00 0.00 0.00 93 1013.1
20260505121017 12 0 0.0 0.0 0.00 0.00 0.00 93 1013.1
20260505120517 12 0 0.0 0.0 0.00 0.00 0.00 93 1013.1
20260505120017 12 0 0.0 0.0 0.00 0.00 0.00 93 1013.1
20260505114516 12 0 0.0 0.0 0.00 0.00 0.00 92 1013.1
20260505114017 12 0 0.0 0.0 0.00 0.00 0.00 92 1013.1
20260505113517 12 0 0.0 0.0 0.00 0.00 0.00 93 1013.1
20260505112517 12 0 0.0 0.0 0.00 0.00 0.00 93 1013.0
20260505112016 12 0 0.0 0.0 0.00 0.00 0.00 93 1013.0
20260505111516 12 0 0.0 0.0 0.00 0.00 0.00 93 1013.0
20260505111016 12 0 0.0 0.0 0.00 0.00 0.00 93 1013.0
20260505110516 12 0 0.0 0.0 0.00 0.00 0.00 92 1013.0
20260505102016 12 0 0.0 0.0 0.00 0.00 0.00 92 1012.9
20260505101519 12 0 0.0 0.0 0.00 0.00 0.00 92 1012.9
20260505101016 12 0 0.0 0.0 0.00 0.00 0.00 92 1012.9
20260505100516 12 0 0.0 0.0 0.00 0.00 0.00 92 1012.8
20260505100017 12 0 0.0 0.0 0.00 0.00 0.00 92 1012.8
20260505095516 12 0 0.0 0.0 0.00 0.00 0.00 92 1012.8
20260505095017 12 0 0.0 0.0 0.00 0.00 0.00 92 1012.8
20260505094516 12 0 0.0 0.0 0.00 0.00 0.00 92 1012.9
20260505094016 12 0 0.0 0.0 0.00 0.00 0.00 92 1012.9
20260505093516 12 0 0.0 0.0 0.00 0.00 0.00 92 1012.9
20260505092516 12 0 0.0 0.0 0.00 0.00 0.00 91 1012.7
20260505092016 12 0 0.0 0.0 0.00 0.00 0.00 92 1012.7
20260505091516 12 0 0.0 0.0 0.00 0.00 0.00 92 1012.7
20260505091016 12 0 0.0 0.0 0.00 0.00 0.00 92 1012.7
20260505090017 12 0 0.0 0.0 0.00 0.00 0.00 92 1012.7
20260505085516 12 0 0.0 0.0 0.00 0.00 0.00 92 1012.6
20260505085016 12 0 0.0 0.0 0.00 0.00 0.00 92 1012.6
20260505084516 12 0 0.0 0.0 0.00 0.00 0.00 92 1012.7
20260505084016 12 0 0.0 0.0 0.00 0.00 0.00 92 1012.7
20260505083018 12 0 0.0 0.0 0.00 0.00 0.00 92 1012.6
20260505082517 12 0 0.0 0.0 0.00 0.00 0.00 92 1012.5
20260505082019 12 0 0.0 0.0 0.00 0.00 0.00 92 1012.5
20260505081516 12 0 0.0 0.0 0.00 0.00 0.00 92 1012.4
20260505081016 12 0 0.0 0.0 0.00 0.00 0.00 92 1012.4
20260505080516 12 0 0.0 0.0 0.00 0.00 0.00 92 1012.4
20260505075516 12 0 0.0 0.0 0.00 0.00 0.00 92 1012.4
20260505075018 12 0 0.0 0.0 0.00 0.00 0.00 92 1012.3
20260505074516 12 0 0.0 0.0 0.00 0.00 0.00 92 1012.3
20260505074016 12 0 0.0 0.0 0.00 0.00 0.00 92 1012.3
20260505073521 12 0 0.0 0.0 0.00 0.00 0.00 92 1012.4
20260505073516 12 0 0.0 0.0 0.00 0.00 0.00 92 1012.4
20260505072516 12 0 0.0 0.0 0.00 0.00 0.00 92 1012.3
20260505072016 12 0 0.0 0.0 0.00 0.00 0.00 92 1012.2
20260505070516 12 0 0.0 0.0 0.00 0.00 0.00 92 1012.1
20260505070016 12 0 0.0 0.0 0.00 0.00 0.00 92 1012.1
20260505065516 13 0 0.0 0.0 0.00 0.00 0.00 92 1012.1
20260505065016 12 0 0.0 0.0 0.00 0.00 0.00 92 1012.1
20260505064516 12 0 0.0 0.0 0.00 0.00 0.00 92 1012.1
20260505064017 13 0 0.0 0.0 0.00 0.00 0.00 92 1012.1
20260505063516 12 0 0.0 0.0 0.00 0.00 0.00 92 1012.2
20260505063016 12 0 0.0 0.0 0.00 0.00 0.00 92 1012.3
20260505062017 12 0 0.0 0.0 0.00 0.00 0.00 92 1012.2
20260505061516 12 0 0.0 0.0 0.00 0.00 0.00 92 1012.2
20260505061016 12 0 0.0 0.0 0.00 0.00 0.00 92 1012.2
20260505060516 12 0 0.0 0.0 0.00 0.00 0.00 92 1012.2
20260505055516 12 0 0.0 0.0 0.00 0.00 0.00 92 1012.2
20260505055016 12 0 0.0 0.0 0.00 0.00 0.00 92 1012.2
20260505054516 12 0 0.0 3.2 0.00 0.00 0.00 92 1012.1
20260505053517 12 0 0.0 0.0 0.00 0.00 0.00 92 1012.2
20260505053018 13 0 0.0 0.0 0.00 0.00 0.00 92 1012.1
20260505052517 12 0 0.0 0.0 0.00 0.00 0.00 91 1012.1
20260505052016 13 0 0.0 0.0 0.00 0.00 0.00 91 1012.1
20260505051516 13 217 0.0 3.2 0.00 0.00 0.00 91 1012.2
20260505051016 13 217 0.0 3.2 0.00 0.00 0.00 91 1012.2
20260505050516 13 214 1.6 3.2 0.00 0.00 0.00 91 1012.2
20260505041519 13 0 0.0 3.2 0.00 0.00 0.00 89 1011.9
20260505041017 13 0 0.0 3.2 0.00 0.00 0.00 89 1011.9
20260505040516 13 0 0.0 3.2 0.00 0.00 0.00 88 1011.8
20260505035516 13 217 1.6 6.4 0.00 0.00 0.00 88 1011.6
20260505034017 13 231 0.0 4.8 0.00 0.00 0.00 87 1011.5
20260505033516 13 215 0.0 4.8 0.00 0.00 0.00 87 1011.5
20260505032516 13 253 1.6 4.8 0.00 0.00 0.00 87 1011.3
20260505032016 13 226 0.0 4.8 0.00 0.00 0.00 87 1011.3
20260505031517 13 226 1.6 4.8 0.00 0.00 0.00 87 1011.3
20260505031016 13 226 0.0 4.8 0.00 0.00 0.00 87 1011.1
20260505030516 13 203 1.6 4.8 0.00 0.00 0.00 86 1011.1
20260505030019 13 203 1.6 4.8 0.00 0.00 0.00 86 1011.0
20260505025516 13 210 1.6 3.2 0.00 0.00 0.00 86 1011.1
20260505025018 13 210 1.6 3.2 0.00 0.00 0.00 85 1011.1
20260505024516 13 235 3.2 12.9 0.00 0.00 0.00 85 1011.1
20260505024016 13 235 1.6 12.9 0.00 0.00 0.00 85 1011.0
20260505023516 13 221 3.2 9.7 0.00 0.00 0.00 85 1011.0
20260505023016 13 221 4.8 9.7 0.00 0.00 0.00 85 1011.0
20260505022516 13 217 3.2 8.0 0.00 0.00 0.00 85 1010.9
20260505022016 13 217 3.2 8.0 0.00 0.00 0.00 84 1011.0
20260505021516 14 245 1.6 8.0 0.00 0.00 0.00 84 1011.0
20260505021016 14 271 3.2 8.0 0.00 0.00 0.00 84 1011.0
20260505020018 14 264 4.8 8.0 0.00 0.00 0.00 83 1011.0
20260505015516 14 246 3.2 6.4 0.00 0.00 0.00 82 1011.1
20260505015016 15 226 3.2 8.0 0.00 0.00 0.00 82 1011.1
20260505014516 15 226 3.2 8.0 0.00 0.00 0.00 82 1011.1
20260505014017 15 233 4.8 8.0 0.00 0.00 0.00 81 1011.1
20260505013516 15 233 3.2 8.0 0.00 0.00 0.00 81 1011.1
20260505013016 15 221 1.6 6.4 0.00 0.00 0.00 81 1011.1
20260505012516 15 221 3.2 6.4 0.00 0.00 0.00 80 1011.1
20260505012016 15 197 3.2 6.4 0.00 0.00 0.00 81 1011.1
20260505011517 15 197 4.8 6.4 0.00 0.00 0.00 80 1011.1
20260505010516 15 229 4.8 6.4 0.00 0.00 0.00 79 1011.1
20260505010018 15 225 3.2 8.0 0.00 0.00 0.00 80 1011.1
20260505005516 15 249 4.8 8.0 0.00 0.00 0.00 80 1011.1
20260505005016 16 235 6.4 6.4 0.00 0.00 0.00 79 1011.1
20260505004516 16 207 3.2 8.0 0.00 0.00 0.00 79 1011.2
20260505003516 16 235 3.2 8.0 0.00 0.00 0.00 78 1011.2
20260505003019 16 235 3.2 8.0 0.00 0.00 0.00 79 1011.2
20260505002516 16 243 4.8 9.7 0.00 0.00 0.00 78 1011.2
20260505001016 16 239 6.4 9.7 0.00 0.00 0.00 78 1011.2
20260504235016 16 215 6.4 12.9 0.00 0.00 0.00 75 1011.3
20260504234516 17 217 4.8 9.7 0.00 0.00 0.00 75 1011.4
20260504234016 17 217 4.8 9.7 0.00 0.00 0.00 75 1011.4
20260504232015 17 219 3.2 17.7 0.00 0.00 0.00 74 1011.5
20260504231516 17 245 3.2 17.7 0.00 0.00 0.00 73 1011.5
20260504231017 17 201 6.4 8.0 0.00 0.00 0.00 73 1011.4
20260504230515 17 201 3.2 9.7 0.00 0.00 0.00 74 1011.4
20260504230016 17 229 6.4 9.7 0.00 0.00 0.00 73 1011.4
20260504225516 17 229 3.2 9.7 0.00 0.00 0.00 75 1011.5
20260504225015 18 204 4.8 14.5 0.00 0.00 0.00 73 1011.5
20260504224516 18 204 3.2 14.5 0.00 0.00 0.00 73 1011.5
20260504224015 18 257 3.2 14.5 0.00 0.00 0.00 74 1011.6
20260504223515 18 257 4.8 14.5 0.00 0.00 0.00 74 1011.5
20260504222516 18 280 4.8 11.3 0.00 0.00 0.00 74 1011.6
20260504222015 18 235 3.2 11.3 0.00 0.00 0.00 74 1011.7
20260504221518 18 231 8.0 8.0 0.00 0.00 0.00 73 1011.7
20260504221015 18 231 3.2 12.9 0.00 0.00 0.00 74 1011.7
20260504220516 17 217 4.8 12.9 0.00 0.00 0.00 75 1011.8
20260504220016 17 261 4.8 12.9 0.00 0.00 0.00 75 1011.8
20260504215516 17 214 4.8 8.0 0.00 0.00 0.00 75 1011.8
20260504213515 17 259 3.2 14.5 0.00 0.00 0.00 76 1011.9
20260504213015 17 259 3.2 14.5 0.00 0.00 0.00 75 1011.9
20260504212515 17 254 3.2 9.7 0.00 0.00 0.00 77 1011.9
20260504212015 17 254 3.2 9.7 0.00 0.00 0.00 77 1011.9
20260504211515 17 214 3.2 8.0 0.00 0.00 0.00 77 1012.0
20260504210515 17 224 3.2 9.7 0.00 0.00 0.00 78 1012.1
20260504205015 17 224 3.2 9.7 0.00 0.00 0.00 79 1012.1
20260504204015 16 275 4.8 9.7 0.00 0.00 0.00 79 1012.2
20260504203016 16 236 4.8 9.7 0.00 0.00 0.00 80 1012.2
20260504202515 16 236 4.8 9.7 0.00 0.00 0.00 81 1012.2
20260504202015 16 236 3.2 14.5 0.00 0.00 0.00 81 1012.2
20260504201515 16 236 3.2 14.5 0.00 0.00 0.00 82 1012.3
20260504195515 16 253 3.2 9.7 0.00 0.00 0.00 82 1012.5
20260504195015 16 245 3.2 9.7 0.00 0.00 0.00 81 1012.5
20260504194016 16 0 0.0 0.0 0.00 0.00 0.00 82 1012.4
20260504193515 16 0 0.0 0.0 0.00 0.00 0.00 82 1012.3
20260504192515 16 0 0.0 0.0 0.00 0.00 0.00 83 1012.3
20260504192016 16 0 0.0 0.0 0.00 0.00 0.00 82 1012.3
20260504191516 16 0 0.0 0.0 0.00 0.00 0.00 83 1012.3
20260504191015 15 0 0.0 0.0 0.00 0.00 0.00 83 1012.3
20260504184015 15 0 0.0 0.0 0.00 0.00 0.00 84 1012.4
20260504183546 15 0 0.0 0.0 0.00 0.00 0.00 84 1012.2
20260504183515 15 0 0.0 0.0 0.00 0.00 0.00 84 1012.2
20260504183015 15 0 0.0 0.0 0.00 0.00 0.00 84 1012.2
20260504182015 15 0 0.0 0.0 0.00 0.00 0.00 84 1012.2
20260504181515 15 0 0.0 0.0 0.00 0.00 0.00 84 1012.2
20260504181015 15 0 0.0 0.0 0.00 0.00 0.00 84 1012.1
20260504180015 15 0 0.0 0.0 0.00 0.00 0.00 85 1012.0
20260504175015 15 0 0.0 0.0 0.00 0.00 0.00 86 1011.9
20260504174515 15 0 0.0 0.0 0.00 0.00 0.00 86 1011.9
20260504174015 15 0 0.0 0.0 0.00 0.00 0.00 86 1011.9
20260504173515 15 0 0.0 0.0 0.00 0.00 0.00 87 1011.9
20260504171515 14 0 0.0 0.0 0.00 0.00 0.00 87 1011.9
20260504171015 14 0 0.0 0.0 0.00 0.00 0.00 87 1011.9
20260504170515 14 0 0.0 0.0 0.00 0.00 0.00 87 1011.9
20260504151017 13 0 0.0 0.0 0.00 0.00 0.00 91 1011.6
20260504150515 13 0 0.0 0.0 0.00 0.00 0.00 91 1011.5
20260504141015 12 0 0.0 0.0 0.00 0.00 0.00 92 1011.1
20260504140516 12 0 0.0 0.0 0.00 0.00 0.00 92 1011.1
20260504130515 12 0 0.0 0.0 0.00 0.00 0.00 92 1010.6